[[{"header":{"parameterUnit":"m.s-1","parameterCategory":1,"la1":30.2991,"la2":30.254,"lo1":-89.0895,"lo2":-89.0444,"dy":0.0017,"dx":0.0017,"nx":28,"ny":28,"refTime":"2023-07-28T03:00:00:Z","depth":0,"parameterNumber":2,"parameterNumberName":"U-component_of_WINDS"},"data":[0,0,0,0,0,0,0,0,0,0,0,0,0,0,0,0,0,0,0,0,0,0,0,0,0,0,0,0,0,0,0,0,0,0,0,0,0,0,0,0,0,0,0,0,0,0,0,0,0,0,0,0,0,0,0,0,0,0,2.9498,2.9498,0,2.9499,2.9499,2.9499,2.9427,2.9425,2.9423,2.9421,2.9423,2.9425,2.9427,0,0,0,0,0,0,0,0,0,0,0,0,0,2.943,2.9432,2.9498,2.9498,2.9498,2.9499,2.9499,2.9499,2.9427,2.9425,2.9423,2.942,2.9423,2.9425,2.9427,0,0,0,0,0,0,0,0,0,0,0,0,0,2.9449,2.9432,2.9498,2.9462,2.9459,2.9499,2.9499,2.9499,2.9428,2.9425,2.9422,2.9419,2.9422,2.9425,2.9427,2.9503,0,0,2.9436,2.9437,0,0,0,0,0,0,0,0,2.9448,2.9451,2.9467,2.9464,2.9461,2.946,2.9476,2.9501,2.9428,2.944,2.9421,2.9418,2.9438,2.9439,2.9446,2.9503,2.9503,2.9436,2.9438,2.9439,2.944,0,0,0,0,0,0,0,2.9446,2.9451,2.9498,2.9467,2.9464,2.9445,2.9445,2.9481,2.9455,2.9438,2.9433,2.9434,2.9436,2.9443,2.9445,2.9503,2.9436,2.9439,2.944,2.9441,2.9617,2.962,0,0,0,0,0,0,2.945,2.945,2.9498,2.9498,2.9447,2.9449,2.9448,2.9463,2.9454,2.945,2.9437,2.9431,2.944,2.9442,2.9445,2.9529,2.9439,2.9442,2.9443,2.9614,2.9617,2.9621,0,0,0,0,0,0,2.9449,2.9455,2.9498,2.9473,2.9477,2.9453,2.9471,2.9465,2.9472,2.9453,2.9448,2.9449,2.9438,2.9441,2.9488,2.9528,2.9443,2.9445,2.961,2.9615,2.9619,2.9699,0,0,0,0,0,0,2.9447,2.9455,2.9484,2.9474,2.9479,2.9542,2.9473,2.9467,2.9477,2.947,2.9464,2.946,2.9436,2.9484,2.9491,2.953,2.9448,2.9607,2.9612,2.9618,2.9693,2.9706,2.9717,0,0,0,0,0,2.9445,2.9508,2.9486,2.9492,2.9514,2.9544,2.9547,2.9518,2.9481,2.9509,2.9496,2.946,2.9523,2.9489,2.9496,2.9537,2.9604,2.9611,2.9617,2.9687,2.9703,2.9717,0,0,0,0,0,0,2.9524,2.9506,2.9481,2.9543,2.9545,2.9532,2.9566,2.9536,2.9549,2.9542,2.9505,2.9505,2.9556,2.9552,2.9514,2.9608,2.9557,2.9565,2.9608,2.9623,2.9635,2.9633,2.945,0,0,0,0,0,2.9548,2.9575,2.9557,2.9613,2.9615,2.9591,2.9603,2.958,2.9582,2.9582,2.9573,2.9576,2.9595,2.961,2.9627,2.9693,2.9689,2.9724,2.9737,2.9747,2.9753,2.9784,2.9798,2.9643,2.9643,2.9643,0,0,2.9599,2.9592,2.9611,2.9628,2.9628,2.9654,2.9592,2.9624,2.9643,2.9587,2.9629,2.9623,2.9623,2.9678,2.9702,2.9676,2.9796,2.9755,2.9763,2.9765,2.9792,2.9807,2.982,2.9647,2.9647,2.9646,0,0,2.9704,2.9704,2.9747,2.9747,2.9747,2.973,2.9741,2.9731,2.9724,2.9766,2.9724,2.9746,2.9782,2.9783,2.9788,2.9891,2.9857,2.9898,2.996,2.9991,3.0003,3.0013,3.0046,3.0059,2.9906,2.9906,2.9906,0,2.9767,2.9806,2.9774,2.9807,2.9814,2.9765,2.9808,2.981,2.9816,2.9821,2.9793,2.9834,2.9832,2.9884,2.9909,2.9917,2.9925,2.9897,3.0004,3.0014,3.0023,3.0054,3.0067,2.9911,2.991,2.991,2.9909,0,2.9881,2.9908,2.9944,2.9948,2.996,2.9999,2.9972,2.9988,2.9964,2.9949,2.9991,2.9986,2.9999,3.0011,2.9989,3.006,3.0043,3.001,2.9958,3.0043,3.0072,3.0084,2.9917,2.9916,2.9914,2.9913,0,0,3.0035,3.002,3.0034,3.0033,3.0028,3.0048,3.0084,3.0096,3.0109,3.0115,3.0141,3.0172,3.014,3.0146,3.0124,3.0151,3.0228,3.0113,3.0112,3.0131,3.0301,3.0324,3.0338,3.0206,3.0209,3.021,3.03,0,3.0134,3.0192,3.0163,3.0225,3.0247,3.02,3.023,3.023,3.0217,3.0234,3.0221,3.0241,3.02,3.0202,3.0227,3.0213,3.0261,3.0207,3.0228,3.023,3.0226,3.0354,3.0378,3.0463,3.0311,3.0313,3.0315,0,3.0256,3.0265,3.0328,3.0315,3.0324,3.0351,3.0359,3.0377,3.0375,3.0363,3.0369,3.0339,3.0371,3.0322,3.0364,3.0328,3.0335,3.033,3.0332,3.033,3.0275,3.0352,3.049,3.0501,3.0333,3.0331,3.033,0,3.0357,3.0385,3.0425,3.0427,3.0415,3.0434,3.043,3.0425,3.0433,3.0441,3.0445,3.0457,3.0462,3.0471,3.0445,3.0412,3.0489,3.0439,3.0479,3.0479,3.0495,3.0494,3.0632,3.0506,3.0506,3.0506,3.0505,0,3.0468,3.0508,3.0469,3.0494,3.0536,3.0503,3.0545,3.0536,3.0532,3.0552,3.0514,3.0534,3.0499,3.0516,3.0496,3.0532,3.0536,3.0526,3.0519,3.0527,3.0528,3.0529,3.0521,3.0509,3.0508,3.0508,3.0507,0,3.0587,3.0563,3.0603,3.0587,3.0584,3.0616,3.0601,3.0623,3.0607,3.0634,3.0638,3.0614,3.0631,3.0606,3.0622,3.0608,3.0656,3.0643,3.0656,3.0651,3.0691,3.0686,3.0832,3.0848,3.0716,3.0717,3.0718,0,3.0658,3.0686,3.0673,3.0683,3.0681,3.0699,3.0707,3.0675,3.0685,3.0683,3.0704,3.0718,3.0726,3.0756,3.0739,3.075,3.0734,3.0785,3.0736,3.0741,3.073,3.0727,3.0728,3.0794,3.0796,3.0797,3.0798,0,3.0784,3.077,3.0782,3.079,3.08,3.0805,3.0807,3.0818,3.0784,3.0797,3.0813,3.082,3.0834,3.0848,3.0854,3.0849,3.0817,3.0814,3.0823,3.083,3.0835,3.0828,3.068,3.081,3.0809,3.0808,3.0807,3.0807,3.0878,3.09,3.0892,3.0907,3.0904,3.0907,3.0924,3.091,3.0923,3.0931,3.0913,3.0933,3.0928,3.0932,3.093,3.0945,3.0923,3.0937,3.094,3.0943,3.0947,3.0835,3.0947,3.0946,3.0946,3.0946,3.0945,0,3.0999,3.0991,3.1005,3.1007,3.1018,3.0988,3.0988,3.0998,3.1016,3.1014,3.1023,3.104,3.1052,3.1036,3.1045,3.106,3.1045,3.1063,3.106,3.1058,3.0969,3.0958,3.1074,3.1074,3.1074,3.1074,3.1074,3.1074,3.1062,3.1096,3.1081,3.1113,3.1105,3.1124,3.1126,3.1127,3.1124,3.1145,3.1154,3.1144,3.1135,3.1143,3.1152,3.1147,3.115,3.1172,3.1162,3.1078,3.1065,3.1053,3.1042,3.1174,3.1174,3.1249,3.125,3.125]},{"header":{"parameterUnit":"m.s-1","parameterCategory":1,"la1":30.2991,"la2":30.254,"lo1":-89.0895,"lo2":-89.0444,"dy":0.0017,"dx":0.0017,"nx":28,"ny":28,"refTime":"2023-07-28T03:00:00:Z","depth":0,"parameterNumber":3,"parameterNumberName":"V-component_of_WINDS"},"data":[0,0,0,0,0,0,0,0,0,0,0,0,0,0,0,0,0,0,0,0,0,0,0,0,0,0,0,0,0,0,0,0,0,0,0,0,0,0,0,0,0,0,0,0,0,0,0,0,0,0,0,0,0,0,0,0,0,0,1.9777,1.9778,0,1.9875,1.9876,1.9877,1.9889,1.9888,1.9887,1.9886,1.9984,1.9987,1.9991,0,0,0,0,0,0,0,0,0,0,0,0,0,1.9597,1.96,1.9777,1.9778,1.978,1.9875,1.9876,1.9878,1.9889,1.9888,1.9887,1.9886,1.9983,1.9987,1.9991,0,0,0,0,0,0,0,0,0,0,0,0,0,1.9683,1.9601,1.9777,1.9797,1.98,1.9875,1.9876,1.9878,1.9889,1.9888,1.9886,1.9885,1.9981,1.9986,1.9991,2.0053,0,0,2.0008,2.001,0,0,0,0,0,0,0,0,1.9678,1.9689,1.9793,1.9796,1.9799,1.9868,1.9849,1.9936,1.989,1.9855,1.9886,1.9884,1.9946,1.9954,1.9976,2.0057,2.0061,2.0008,2.0011,2.0013,2.0015,0,0,0,0,0,0,0,1.9672,1.9685,1.9816,1.9794,1.9798,1.98,1.981,1.9865,1.9908,1.9858,1.9859,1.9871,1.9948,1.9971,1.9978,2.0063,2.0008,2.0012,2.0016,2.0018,2.0198,2.0199,0,0,0,0,0,0,1.9663,1.968,1.9813,1.9819,1.9734,1.9804,1.9816,1.9847,1.9907,1.9915,1.9872,1.9871,1.9962,1.9972,1.9982,2.0056,2.0013,2.0018,2.0021,2.0196,2.0198,2.02,0,0,0,0,0,0,1.9659,1.9674,1.9809,1.975,1.9767,1.9809,1.9844,1.985,1.9873,1.9918,1.9925,1.9888,1.9962,1.9974,2.0035,2.006,2.0021,2.0025,2.0194,2.0197,2.0199,2.0206,0,0,0,0,0,0,1.9654,1.9673,1.9698,1.975,1.977,1.9861,1.9846,1.9853,1.9883,1.9882,1.9934,1.9942,1.9962,2.0027,2.004,2.0066,2.003,2.0192,2.0195,2.0198,2.0204,2.0209,2.0213,0,0,0,0,0,1.9647,1.9695,1.9699,1.9715,1.9802,1.9863,1.9874,1.9897,1.9885,1.9909,1.9937,1.994,2.0055,2.0033,2.0048,2.0076,2.019,2.0194,2.0198,2.0202,2.0208,2.0213,0,0,0,0,0,0,1.9644,1.9703,1.9707,1.9774,1.9813,1.9865,1.9896,1.9902,1.9945,1.9943,1.9969,1.998,2.0039,2.0064,2.0038,2.0138,2.0121,2.0128,2.0119,2.0125,2.013,2.0122,2.0034,0,0,0,0,0,1.9651,1.9697,1.9745,1.98,1.9819,1.9854,1.9882,1.9896,1.9937,1.9953,1.9986,2.0025,2.007,2.0099,2.0143,2.0208,2.0218,2.0234,2.0239,2.0242,2.0247,2.0282,2.0289,2.0212,2.0212,2.0212,0,0,1.9666,1.9704,1.9731,1.98,1.9832,1.9877,1.9868,1.9917,1.995,1.9961,2.002,2.0045,2.009,2.0153,2.0182,2.0175,2.0271,2.0247,2.0249,2.0253,2.0286,2.0294,2.03,2.0214,2.0214,2.0213,0,0,1.9717,1.9751,1.9799,1.9832,1.988,1.9903,1.9915,1.9965,1.9982,2.0042,2.005,2.009,2.0167,2.0199,2.0225,2.0286,2.029,2.03,2.0322,2.0356,2.0362,2.0367,2.0388,2.0395,2.0305,2.0305,2.0305,0,1.973,1.9799,1.9823,1.9872,1.9901,1.9913,1.9961,1.9991,2.0051,2.0071,2.0062,2.0159,2.019,2.0259,2.0274,2.0295,2.0308,2.0294,2.0359,2.0365,2.037,2.039,2.0398,2.0306,2.0306,2.0305,2.0305,0,1.9811,1.9859,1.9893,1.9951,1.9984,2.0032,2.0062,2.0093,2.0103,2.0127,2.0187,2.0225,2.0276,2.0293,2.0304,2.0364,2.0358,2.0354,2.0338,2.0378,2.0397,2.0405,2.0307,2.0307,2.0306,2.0306,0,0,1.9863,1.9934,1.9946,1.9972,2.0026,2.0063,2.0111,2.0161,2.0186,2.0227,2.0267,2.0332,2.0328,2.0357,2.0372,2.0401,2.0446,2.0394,2.0395,2.0401,2.0513,2.0515,2.0523,2.0449,2.0451,2.0452,2.0508,0,1.992,2.0006,2.0029,2.0102,2.0146,2.0157,2.0199,2.0236,2.0258,2.0298,2.0323,2.0368,2.036,2.0378,2.0407,2.0434,2.0469,2.0431,2.0485,2.0487,2.0473,2.0534,2.0536,2.0588,2.0516,2.0518,2.0518,0,1.9997,2.004,2.0118,2.0165,2.0184,2.0221,2.0269,2.0307,2.0348,2.0363,2.0395,2.0407,2.0456,2.0437,2.0504,2.0478,2.0501,2.0518,2.052,2.0526,2.0505,2.054,2.0605,2.0613,2.0531,2.053,2.0529,0,2.0026,2.0103,2.0159,2.0181,2.0238,2.0264,2.0288,2.0329,2.0357,2.0398,2.0417,2.0463,2.0488,2.0523,2.0546,2.053,2.061,2.0594,2.0622,2.0622,2.0638,2.0637,2.0707,2.0654,2.0654,2.0654,2.0654,0,2.0086,2.0133,2.0173,2.0207,2.0259,2.0284,2.0335,2.036,2.0395,2.0434,2.0446,2.0482,2.051,2.0549,2.0568,2.0619,2.0631,2.0643,2.0647,2.0641,2.064,2.0657,2.0653,2.0656,2.0656,2.0655,2.0655,0,2.0127,2.0156,2.0217,2.0266,2.0279,2.0316,2.0357,2.039,2.0413,2.0461,2.0474,2.051,2.0556,2.0583,2.0641,2.0653,2.0711,2.0713,2.0697,2.0699,2.0725,2.0722,2.0808,2.0821,2.076,2.0761,2.0761,0,2.0163,2.0199,2.0252,2.0279,2.0304,2.0348,2.0377,2.0402,2.0432,2.0481,2.0508,2.0556,2.0595,2.0669,2.0699,2.0743,2.0747,2.0774,2.0753,2.0746,2.0746,2.0743,2.0746,2.0777,2.0778,2.0778,2.0779,0,2.0224,2.0236,2.0278,2.0325,2.036,2.0398,2.0435,2.0456,2.0487,2.052,2.0568,2.0599,2.0658,2.0705,2.0752,2.0776,2.0782,2.0785,2.0794,2.0788,2.0777,2.0782,2.0706,2.0783,2.0782,2.0782,2.0782,2.0782,2.0263,2.0295,2.0337,2.0383,2.0414,2.0449,2.0482,2.0509,2.055,2.0601,2.0613,2.0663,2.0702,2.0766,2.0791,2.083,2.0825,2.0838,2.0841,2.0844,2.0844,2.0771,2.0839,2.0839,2.0839,2.0839,2.0839,0,2.0323,2.0351,2.0393,2.0445,2.0481,2.0485,2.0526,2.0556,2.06,2.0637,2.0675,2.0729,2.0774,2.0808,2.0854,2.0878,2.0882,2.0889,2.0887,2.0892,2.0847,2.0834,2.0885,2.0885,2.0885,2.0885,2.0885,2.0885,2.0359,2.0414,2.0431,2.05,2.0527,2.0577,2.06,2.0631,2.0661,2.0721,2.0759,2.0781,2.0816,2.0864,2.0904,2.0913,2.0929,2.0935,2.0944,2.0901,2.0896,2.0891,2.0879,2.0939,2.0939,2.0987,2.0987,2.0987]}]]